Location: Newark
(34.0131°N, 4.3314°W)
Time: 07:01:30
(UTC+00:00)

A-11 Canister half - Pass Details

Date: 27 October 2019
Orbit: 1514 x 1686 km, 47.2° (Epoch: 13 November)

Event Time Altitude Azimuth Distance (km) Brightness Sun altitude
Rises 22:34:23 0° 213° (SSW) 4,925 - -61.1°
Reaches altitude 10° 22:37:38 10° 209° (SSW) 3,940 - -61.6°
Maximum altitude 22:47:27 56° 135° (SE) 1,931 - -63.1°
Drops below altitude 10° 22:57:05 10° 60° (ENE) 3,884 - -64.4°
Sets 23:00:15 0° 57° (ENE) 4,852 - -64.8°
